Location: Newark
(26.8229°N, 81.7649°W)
Time: 15:16:34
(UTC+00:00)

N. Korean satellite - Pass Details

Date: 26 January 2020
Orbit: 456 x 506 km, 97.2° (Epoch: 17 February)

Event Time Altitude Azimuth Distance (km) Brightness Sun altitude
Rises 11:38:47 0° 356° (N) 2,547 10.0 -8.5°
Reaches altitude 10° 11:41:02 10° 344° (NNW) 1,673 9.0 -8.0°
Maximum altitude 11:44:06 27° 285° (WNW) 976 7.5 -7.4°
Drops below altitude 10° 11:47:12 10° 226° (SW) 1,688 9.0 -6.7°
Sets 11:49:30 0° 214° (SW) 2,574 10.1 -6.2°
